Find Starlink 3922

NORAD ID: 52584 Int'l Des: 2022-051 Owner: SPXS Country: US Constellation: starlink operational
LEOCIRCULAR

リアルタイム位置

3D地球を読み込み中...

Starlink 3922について

説明を読み込み中...

次回通過

Passes for default location (London). Set your location on the main map for personalized predictions.

高度履歴

Loading altitude history...

軌道要素

1 52584U 22051BA 26105.83856580 -.00000000 00000-0 18055-4 0 9995
2 52584 53.2175 312.3529 0001022 83.0698 277.0410 15.08838923217191
Epoch: Apr 15, 2026 • Age: 11 hours

現在のステータス

高度 543.9 km
速度 7.60 km/s
衛星直下点 45.43°N, 41.82°E
打ち上げ日 May 13, 2022
運用期間 3.9 years
タイプ internet

技術仕様

分類 Payload
質量 297.00 kg
乾燥質量 275.00 kg
総質量 297.00 kg
長さ 0.20 m
直径 2.80 m
スパン 9.00 m
形状 Box + pan
製造者 SPXS
バスタイプ Starlink
フェーズステータス In Orbit
所有者/国 SPXS/US

Most Searched